Header for Extended Forecast Station List Page

Search by: ID | Name | Date | Parm | Value | Avg | % Avg
Sort by: ID | Name | Date | Parm | Value | Avg | % Avg

Enter search or view all records.

Click on id for station plot
#IDNameDateParmValueAvg% Avg
0LYDM8KOOTENAI-LIBBY DAM11-28-2022INFLOW (KAF)61183373
1LEOI1KOOTENAI-AT LEONIA11-28-2022DISCHARGE (KAF)2045240385
2BFEI1KOOTENAI-AT BONNERS FERRY11-28-2022STAGE (FT)MMM
3FCFM8NF FLATHEAD-NEAR COLUMBIA FALLS11-28-2022DISCHARGE (KAF)11517765
4WGCM8MF FLATHEAD-NEAR WEST GLACIER11-28-2022DISCHARGE (KAF)4615929
5HHWM8SF FLATHEAD-HUNGRY HORSE DAM11-28-2022INFLOW (KAF)12524851
6CFMM8FLATHEAD-AT COLUMBIA FALLS11-28-2022DISCHARGE (KAF)83995388
7DLGM8CLARK FORK-AT DEER LODGE11-28-2022DISCHARGE (KAF)435284
8DRMM8CLARK FORK-NR DRUMMOND11-28-2022DISCHARGE (KAF)11112688
9RCCM8ROCK CREEK-NEAR CLINTON11-28-2022DISCHARGE (KAF)4846105
10BONM8BLACKFOOT-NEAR BONNER11-28-2022DISCHARGE (KAF)11114079
11ABOM8CLARK FORK-ABOVE MISSOULA11-28-2022DISCHARGE (KAF)28233584
12BITM8BITTERROOT-NEAR MISSOULA11-28-2022DISCHARGE (KAF)16021076
13BELM8CLARK FORK-BELOW MISSOULA11-28-2022DISCHARGE (KAF)44355680
14STRM8ST. REGIS-NEAR ST. REGIS11-28-2022DISCHARGE (KAF)194739
15SRGM8CLARK FORK-AT ST REGIS11-28-2022DISCHARGE (KAF)54674773
16KERM8FLATHEAD-SELI’Š KSANKA QLISPE’ DAM11-28-2022INFLOW (KAF)939141266
17NOXM8CLARK FORK-NOXON RAPIDS DAM11-28-2022INFLOW (KAF)2421312777
18CABI1CLARK FORK-CABINET GORGE DAM11-28-2022INFLOW (KAF)2673357575
19PRTI1PRIEST-NEAR PRIEST RIVER11-28-2022DISCHARGE (KAF)12423852
20ALFW1PEND OREILLE-ALBENI FALLS DAM11-28-2022INFLOW (KAF)2965405373
21HOPI1PEND OREILLE-PEND OREILLE LAKE NR HOPE11-28-2022LAKE ELEVATION (FT)MMM
22COEI1COEUR D ALENE-COEUR D ALENE LAKE11-28-2022INFLOW (KAF)670120656
23SPOW1SPOKANE-AT SPOKANE11-28-2022DISCHARGE (KAF)609131446
24LLKW1SPOKANE-AT LONGLAKE11-28-2022INFLOW (KAF)879158356
25SATI1ST MARIES-NEAR SANTA11-28-2022DISCHARGE (KAF)237232
26SJMI1ST JOE-AT ST MARIES11-28-2022STAGE (FT)MMM
27CIBW1COLUMBIA-AT INTL BOUNDARY11-28-2022DISCHARGE (KAF)162261992381
28LAUW1KETTLE-AT LAURIER11-28-2022DISCHARGE (KAF)6515043
29GCDW1COLUMBIA-GRAND COULEE DAM11-28-2022INFLOW (KAF)172262169679
30CHJW1COLUMBIA-CHIEF JOSEPH DAM11-28-2022INFLOW (KAF)201962386185
31TONW1OKANOGAN-NEAR TONASKET11-28-2022DISCHARGE (KAF)19131261
32PATW1METHOW-NEAR PATEROS11-28-2022DISCHARGE (KAF)7310768
33WELW1COLUMBIA-WELLS DAM11-28-2022INFLOW (KAF)204452450783
34CHDW1CHELAN-LAKE CHELAN DAM11-28-2022INFLOW (KAF)6220231
35RRHW1COLUMBIA-ROCKY REACH DAM11-28-2022INFLOW (KAF)207212489983
36ARDW1ENTIAT-NEAR ARDENVOIR11-28-2022DISCHARGE (KAF)132652
37PESW1WENATCHEE-AT PESHASTIN11-28-2022DISCHARGE (KAF)13633840
38WANW1COLUMBIA-WANAPUM DAM11-28-2022INFLOW (KAF)208672552282
39PRWW1COLUMBIA-PRIEST RAPIDS DAM11-28-2022INFLOW (KAF)208672559482
40KEDW1YAKIMA-KEECHELUS LAKE11-28-2022INFLOW (KAF)295356
41KADW1KACHESS-KACHESS DAM11-28-2022INFLOW (KAF)285156
42EASW1YAKIMA-AT EASTON11-28-2022DISCHARGE (KAF)448154
43CLUW1CLE ELUM-CLE ELUM LAKE11-28-2022INFLOW (KAF)4911542
44TNAW1TEANAWAY-BELOW FORKS11-28-2022DISCHARGE (KAF)275846
45UMTW1YAKIMA-AT UMTANUM11-28-2022DISCHARGE (KAF)20334160
46BUDW1BUMPING-BUMPING LAKE DAM11-28-2022INFLOW (KAF)153937
47CLFW1NACHES-NEAR CLIFFDEL11-28-2022DISCHARGE (KAF)5413141
48RILW1TIETON-RIMROCK LAKE NEAR RIMROCK11-28-2022INFLOW (KAF)427656
49NACW1NACHES-NEAR NACHES11-28-2022DISCHARGE (KAF)5317929
50PARW1YAKIMA-NEAR PARKER11-28-2022DISCHARGE (KAF)34657760
51KIOW1YAKIMA-AT KIONA11-28-2022DISCHARGE (KAF)47282957
52IPDI1HENRYS FORK-ISLAND PARK DAM11-28-2022INFLOW (KAF)7810575
53CHEI1FALL RIVER-NEAR CHESTER11-28-2022DISCHARGE (KAF)10111390
54ANTI1HENRYS FORK-AT ST. ANTHONY11-28-2022DISCHARGE (KAF)30138079
55TEAI1TETON-NEAR ST. ANTHONY11-28-2022DISCHARGE (KAF)719773
56REXI1HENRYS FORK-AT REXBURG11-28-2022DISCHARGE (KAF)35043680
57JLKW4SNAKE-JACKSON LAKE AT DAM11-28-2022INFLOW (KAF)7911668
58JKSW4SNAKE-NEAR JACKSON11-28-2022DISCHARGE (KAF)24231577
59ALPW4SNAKE-NEAR ALPINE11-28-2022DISCHARGE (KAF)29137578
60PLDI1SF SNAKE-PALISADES DAM11-28-2022INFLOW (KAF)46758380
61HEII1SNAKE-NEAR HEISE11-28-2022DISCHARGE (KAF)496383129
62RIDI1WILLOW CREEK-RIRIE DAM11-28-2022INFLOW (KAF)71448
63SIFI1SNAKE-AB EAGLE ROCK NR IDAHO FALLS11-28-2022DISCHARGE (KAF)67167599
64SHYI1SNAKE-NEAR SHELLEY11-28-2022DISCHARGE (KAF)65167996
65SNAI1SNAKE-AT BLACKFOOT11-28-2022DISCHARGE (KAF)58659499
66BFTI1SNAKE-NEAR BLACKFOOT11-28-2022DISCHARGE (KAF)588582101
67PIHI1PORTNEUF-AT POCATELLO11-28-2022DISCHARGE (KAF)405572
68AFRI1SNAKE-AMERICAN FALLS RESERVOIR11-28-2022INFLOW (KAF)12041203100
69MILI1SNAKE-AT MILNER11-28-2022DISCHARGE (KAF)M55M
70HOTI1BRUNEAU-NEAR HOT SPRINGS11-28-2022DISCHARGE (KAF)133340
71SWAI1SNAKE-BELOW SWAN FALLS11-28-2022DISCHARGE (KAF)1727187892
72HWRI1BIG LOST-AT HOWELL RANCH NEAR CHILLY11-28-2022DISCHARGE (KAF)171893
73MACI1BIG LOST-MACKAY RESERVOIR NEAR MACKAY11-28-2022INFLOW (KAF)313882
74HALI1BIG WOOD-AT HAILEY11-28-2022DISCHARGE (KAF)303880
75MAGI1BIG WOOD-MAGIC DAM11-28-2022INFLOW (KAF)242981
76LWRI1LITTLE WOOD-LITTLE WOOD DAM11-28-2022INFLOW (KAF)81553
77OWYO3OWYHEE-OWYHEE DAM11-28-2022INFLOW (KAF)13715489
78ARAI1SF BOISE-ANDERSON RANCH DAM11-28-2022INFLOW (KAF)658576
79LUCI1BOISE-LUCKY PEAK DAM11-28-2022INFLOW (KAF)16418987
80BIGI1BOISE-AT GLENWOOD BRIDGE11-28-2022DISCHARGE (KAF)12765196
81PARI1BOISE-NEAR PARMA11-28-2022DISCHARGE (KAF)267202132
82WRMO3MALHEUR-WARM SPRINGS DAM11-28-2022INFLOW (KAF)174143
83BERO3MALHEUR-AGENCY VALLEY DAM11-28-2022INFLOW (KAF)132356
84BULO3BULLY CREEK-BULLY CREEK DAM11-28-2022INFLOW (KAF)184407
85CSDI1NF PAYETTE-CASCADE DAM11-28-2022INFLOW (KAF)5710555
86DEDI1DEADWOOD-NEAR LOWMAN11-28-2022INFLOW (KAF)121963
87EMMI1PAYETTE-NEAR EMMETT11-28-2022DISCHARGE (KAF)29236081
88WSRI1WEISER-NEAR WEISER11-28-2022DISCHARGE (KAF)15918984
89WEII1SNAKE-AT WEISER11-28-2022DISCHARGE (KAF)2737298092
90BRNI1SNAKE-BROWNLEE DAM11-28-2022INFLOW (KAF)2975321293
91WHBI1SALMON-AT WHITEBIRD11-28-2022DISCHARGE (KAF)846107079
92TRYO3GRANDE RONDE-TROY11-28-2022DISCHARGE (KAF)28550357
93ANAW1SNAKE-NEAR ANATONE11-28-2022DISCHARGE (KAF)4157554775
94ORFI1CLEARWATER-AT OROFINO11-28-2022DISCHARGE (KAF)417100242
95DWRI1NF CLEARWATER-DWORSHAK DAM11-28-2022INFLOW (KAF)45579957
96SPDI1CLEARWATER-AT SPALDING11-28-2022DISCHARGE (KAF)1040188455
97LGDW1SNAKE-LOWER GRANITE DAM11-28-2022INFLOW (KAF)5188752069
98LGSW1SNAKE-LITTLE GOOSE DAM11-28-2022INFLOW (KAF)5187755669
99LMNW1SNAKE-LOWER MONUMENTAL DAM11-28-2022INFLOW (KAF)5615768673
100IHDW1SNAKE-ICE HARBOR DAM11-28-2022INFLOW (KAF)5615771673
101TCHW1WALLA WALLA-NEAR TOUCHET11-28-2022DISCHARGE (KAF)17719690
102MCDW1COLUMBIA-MCNARY DAM11-28-2022INFLOW (KAF)270923444279
103GIBO3UMATILLA-NEAR GIBBON11-28-2022DISCHARGE (KAF)505591
104PDTO3UMATILLA-AT PENDLETON11-28-2022DISCHARGE (KAF)11914284
105MYKO3MCKAY CREEK-NEAR PILOT ROCK11-28-2022DISCHARGE (KAF)4035114
106UMAO3UMATILLA-NEAR UMATILLA11-28-2022DISCHARGE (KAF)11613486
107MONO3NF JOHN DAY-AT MONUMENT11-28-2022DISCHARGE (KAF)13023156
108SERO3JOHN DAY-AT SERVICE CK11-28-2022DISCHARGE (KAF)20836457
109JDAO3COLUMBIA-JOHN DAY DAM11-28-2022INFLOW (KAF)286083612479
110MODO3DESCHUTES-AT MOODY NR BIGGS11-28-2022DISCHARGE (KAF)991141570
111TDAO3COLUMBIA-THE DALLES DAM11-28-2022INFLOW (KAF)287883674778
112PITW1KLICKITAT-NEAR PITT11-28-2022DISCHARGE (KAF)31837286
113HODO3HOOD-NEAR TUCKER BRIDGE11-28-2022DISCHARGE (KAF)267248108
114UNDW1WHITE SALMON-NEAR UNDERWOOD11-28-2022DISCHARGE (KAF)22128478
115BONO3COLUMBIA-BONNEVILLE DAM11-28-2022INFLOW (KAF)295753849777